• In Portugal
  • List of Countries
  • For 7 days
  • Water Temperature
  • Satellite Maps
  • Weather Map
  • Weather Widgets
  • user-avatar
    Login

    Hourly Weather Slobozia

    Today, 21 September, Friday

    Time Temperature Precipitation Wind Pressure Humidity
    00:00 +22°C° 0 mm 1 mps 764 mmHg 48%
    01:00 +21°C° 0 mm 1 mps 764 mmHg 49%
    02:00 +21°C° 0 mm 1 mps 764 mmHg 50%
    03:00 +21°C° 0 mm 1 mps 764 mmHg 50%
    04:00 +20°C° 0 mm 1 mps 764 mmHg 51%
    05:00 +20°C° 0 mm 1 mps 763 mmHg 52%
    06:00 +21°C° 0 mm 1 mps 764 mmHg 49%
    07:00 +23°C° 0 mm 1 mps 764 mmHg 46%
    08:00 +24°C° 0 mm 2 mps 764 mmHg 42%
    09:00 +26°C° 0 mm 2 mps 764 mmHg 38%
    10:00 +28°C° 0 mm 2 mps 764 mmHg 34%
    11:00 +29°C° 0 mm 2 mps 764 mmHg 30%
    12:00 +30°C° 0 mm 2 mps 763 mmHg 28%
    13:00 +31°C° 0 mm 2 mps 763 mmHg 26%
    14:00 +31°C° 0 mm 2 mps 763 mmHg 25%
    15:00 +31°C° 0 mm 2 mps 763 mmHg 27%
    16:00 +30°C° 0 mm 2 mps 763 mmHg 28%
    17:00 +30°C° 0 mm 2 mps 762 mmHg 30%
    18:00 +28°C° 0 mm 2 mps 762 mmHg 34%
    19:00 +26°C° 0 mm 2 mps 762 mmHg 38%
    20:00 +24°C° 0 mm 2 mps 762 mmHg 42%
    21:00 +24°C° 0 mm 2 mps 762 mmHg 44%
    22:00 +23°C° 0 mm 2 mps 762 mmHg 45%
    23:00 +22°C° 0 mm 1 mps 762 mmHg 47%

    Tomorrow, 22 September, Saturday

    Time Temperature Precipitation Wind Pressure Humidity
    00:00 +22°C° 0 mm 1 mps 762 mmHg 48%
    01:00 +22°C° 0 mm 1 mps 762 mmHg 49%
    02:00 +21°C° 0 mm 1 mps 762 mmHg 50%
    03:00 +21°C° 0 mm 1 mps 762 mmHg 51%
    04:00 +20°C° 0 mm 1 mps 762 mmHg 52%
    05:00 +20°C° 0 mm 1 mps 762 mmHg 53%
    06:00 +21°C° 0 mm 1 mps 762 mmHg 50%
    07:00 +23°C° 0 mm 1 mps 762 mmHg 47%
    08:00 +24°C° 0 mm 1 mps 762 mmHg 44%
    09:00 +26°C° 0 mm 2 mps 761 mmHg 39%
    10:00 +28°C° 0 mm 3 mps 761 mmHg 34%
    11:00 +29°C° 0 mm 3 mps 761 mmHg 29%
    12:00 +30°C° 0 mm 4 mps 761 mmHg 28%
    13:00 +32°C° 0 mm 4 mps 761 mmHg 26%
    14:00 +33°C° 0 mm 4 mps 760 mmHg 24%
    15:00 +32°C° 0 mm 4 mps 760 mmHg 26%
    16:00 +30°C° 0 mm 4 mps 760 mmHg 29%
    17:00 +29°C° 0 mm 3 mps 759 mmHg 31%
    18:00 +28°C° 0 mm 4 mps 759 mmHg 36%
    19:00 +26°C° 0 mm 4 mps 760 mmHg 41%
    20:00 +23°C° 0 mm 4 mps 760 mmHg 46%
    21:00 +23°C° 0 mm 4 mps 760 mmHg 48%
    22:00 +22°C° 0 mm 4 mps 760 mmHg 49%
    23:00 +22°C° 0 mm 5 mps 760 mmHg 51%

    Day after tomorrow, 23 September, Sunday

    Time Temperature Precipitation Wind Pressure Humidity
    00:00 +21°C° 0 mm 6 mps 761 mmHg 57%
    01:00 +18°C° 0 mm 7 mps 761 mmHg 62%
    02:00 +17°C° 0 mm 8 mps 762 mmHg 68%
    03:00 +16°C° 0.3 mm 7 mps 762 mmHg 70%
    04:00 +15°C° 0.3 mm 7 mps 762 mmHg 73%
    05:00 +14°C° 0.3 mm 6 mps 762 mmHg 75%
    06:00 +14°C° 0 mm 6 mps 763 mmHg 73%
    07:00 +15°C° 0 mm 5 mps 763 mmHg 70%
    08:00 +15°C° 0 mm 5 mps 763 mmHg 68%
    09:00 +16°C° 0 mm 5 mps 764 mmHg 59%
    10:00 +17°C° 0 mm 5 mps 764 mmHg 50%
    11:00 +20°C° 0 mm 4 mps 764 mmHg 41%
    12:00 +21°C° 0 mm 4 mps 764 mmHg 37%
    13:00 +22°C° 0 mm 4 mps 763 mmHg 33%
    14:00 +22°C° 0 mm 4 mps 763 mmHg 29%
    15:00 +22°C° 0 mm 3 mps 763 mmHg 29%
    16:00 +22°C° 0 mm 3 mps 763 mmHg 30%
    17:00 +22°C° 0 mm 3 mps 763 mmHg 31%
    18:00 +21°C° 0 mm 2 mps 763 mmHg 33%
    19:00 +20°C° 0 mm 1 mps 763 mmHg 35%
    20:00 +19°C° 0 mm 1 mps 763 mmHg 38%
    21:00 +19°C° 0 mm 1 mps 763 mmHg 38%
    22:00 +18°C° 0 mm 2 mps 763 mmHg 39%
    23:00 +17°C° 0 mm 3 mps 763 mmHg 39%

    24 September, Monday

    Time Temperature Precipitation Wind Pressure Humidity
    00:00 +17°C° 0 mm 3 mps 762 mmHg 42%
    01:00 +17°C° 0 mm 4 mps 762 mmHg 45%
    02:00 +17°C° 0 mm 4 mps 761 mmHg 48%
    03:00 +16°C° 0 mm 5 mps 761 mmHg 53%
    04:00 +16°C° 0 mm 5 mps 760 mmHg 58%
    05:00 +16°C° 0 mm 6 mps 759 mmHg 63%
    06:00 +18°C° 0 mm 7 mps 759 mmHg 63%
    07:00 +20°C° 0 mm 8 mps 758 mmHg 63%
    08:00 +21°C° 0 mm 10 mps 757 mmHg 62%
    09:00 +23°C° 0 mm 10 mps 757 mmHg 58%
    10:00 +24°C° 0 mm 11 mps 756 mmHg 54%
    11:00 +27°C° 0 mm 11 mps 755 mmHg 50%
    12:00 +28°C° 0 mm 10 mps 755 mmHg 47%
    13:00 +29°C° 0 mm 10 mps 755 mmHg 45%
    14:00 +31°C° 0 mm 9 mps 755 mmHg 42%
    15:00 +26°C° 0.1 mm 10 mps 755 mmHg 46%
    16:00 +22°C° 0.1 mm 10 mps 756 mmHg 49%
    17:00 +18°C° 0.1 mm 10 mps 757 mmHg 53%
    18:00 +17°C° 0 mm 9 mps 758 mmHg 51%
    19:00 +16°C° 0 mm 8 mps 759 mmHg 50%
    20:00 +15°C° 0 mm 7 mps 761 mmHg 48%
    21:00 +15°C° 0 mm 7 mps 761 mmHg 49%
    22:00 +14°C° 0 mm 7 mps 762 mmHg 50%
    23:00 +12°C° 0 mm 7 mps 762 mmHg 51%

    25 September, Tuesday

    Time Temperature Precipitation Wind Pressure Humidity
    00:00 +12°C° 0 mm 7 mps 762 mmHg 51%
    01:00 +11°C° 0 mm 6 mps 763 mmHg 51%
    02:00 +11°C° 0 mm 6 mps 763 mmHg 50%
    03:00 +10°C° 0 mm 6 mps 763 mmHg 52%
    04:00 +9°C° 0 mm 6 mps 764 mmHg 53%
    05:00 +9°C° 0 mm 6 mps 764 mmHg 54%
    06:00 +9°C° 0 mm 7 mps 764 mmHg 54%
    07:00 +10°C° 0 mm 8 mps 765 mmHg 53%
    08:00 +10°C° 0 mm 9 mps 765 mmHg 52%
    09:00 +11°C° 0 mm 9 mps 765 mmHg 48%
    10:00 +13°C° 0 mm 9 mps 766 mmHg 43%
    11:00 +15°C° 0 mm 9 mps 766 mmHg 38%
    12:00 +15°C° 0 mm 9 mps 766 mmHg 36%
    13:00 +16°C° 0 mm 9 mps 766 mmHg 33%
    14:00 +16°C° 0 mm 9 mps 766 mmHg 30%
    15:00 +16°C° 0 mm 8 mps 766 mmHg 31%
    16:00 +15°C° 0 mm 8 mps 766 mmHg 32%
    17:00 +15°C° 0 mm 7 mps 767 mmHg 33%
    18:00 +14°C° 0 mm 6 mps 767 mmHg 36%
    19:00 +13°C° 0 mm 5 mps 768 mmHg 38%
    20:00 +11°C° 0 mm 4 mps 768 mmHg 41%
    21:00 +11°C° 0 mm 4 mps 768 mmHg 43%
    22:00 +10°C° 0 mm 3 mps 769 mmHg 46%
    23:00 +10°C° 0 mm 3 mps 769 mmHg 48%

    26 September, Wednesday

    Time Temperature Precipitation Wind Pressure Humidity
    00:00 +9°C° 0 mm 3 mps 769 mmHg 51%
    01:00 +9°C° 0 mm 3 mps 769 mmHg 54%
    02:00 +8°C° 0 mm 3 mps 769 mmHg 56%
    03:00 +8°C° 0 mm 3 mps 769 mmHg 58%
    04:00 +7°C° 0 mm 2 mps 769 mmHg 60%
    05:00 +7°C° 0 mm 2 mps 769 mmHg 62%
    06:00 +8°C° 0 mm 2 mps 769 mmHg 58%
    07:00 +9°C° 0 mm 2 mps 768 mmHg 54%
    08:00 +10°C° 0 mm 2 mps 768 mmHg 51%
    09:00 +13°C° 0 mm 2 mps 768 mmHg 45%
    10:00 +14°C° 0 mm 2 mps 768 mmHg 39%
    11:00 +14°C° 0 mm 3 mps 768 mmHg 33%
    12:00 +16°C° 0 mm 3 mps 768 mmHg 31%
    13:00 +16°C° 0 mm 3 mps 768 mmHg 29%
    14:00 +17°C° 0 mm 2 mps 767 mmHg 27%
    15:00 +17°C° 0 mm 3 mps 767 mmHg 29%
    16:00 +16°C° 0 mm 3 mps 767 mmHg 32%
    17:00 +16°C° 0 mm 3 mps 768 mmHg 34%
    18:00 +14°C° 0 mm 3 mps 768 mmHg 39%
    19:00 +12°C° 0 mm 3 mps 769 mmHg 45%
    20:00 +11°C° 0 mm 3 mps 769 mmHg 51%
    21:00 +10°C° 0 mm 3 mps 769 mmHg 54%
    22:00 +10°C° 0 mm 2 mps 770 mmHg 58%
    23:00 +9°C° 0 mm 2 mps 770 mmHg 61%
    Show more